Time,TemperatureF,DewpointF,PressureIn,WindDirection,WindDirectionDegrees,WindSpeedMPH,WindSpeedGustMPH,Humidity,HourlyPrecipIn,Conditions,Clouds,dailyrainin,SoftwareType,DateUTC
2013-01-24 00:01:00,56.4,53.0,30.27,SW,229,7.0,8.0,87,0.00,,,0.00,weatherlink.com 1.10,2013-01-24 06:01:00,
2013-01-24 00:16:00,56.5,53.0,30.28,WSW,248,4.0,7.0,87,0.00,,,0.00,weatherlink.com 1.10,2013-01-24 06:16:00,
2013-01-24 00:31:00,56.1,53.0,30.28,WSW,249,2.0,5.0,88,0.00,,,0.00,weatherlink.com 1.10,2013-01-24 06:31:00,
2013-01-24 00:46:00,56.2,53.0,30.27,SW,233,6.0,7.0,89,0.00,,,0.00,weatherlink.com 1.10,2013-01-24 06:46:00,
2013-01-24 01:01:00,55.9,53.0,30.27,WSW,254,5.0,5.0,89,0.00,,,0.00,weatherlink.com 1.10,2013-01-24 07:01:00,
2013-01-24 01:16:00,55.3,52.0,30.28,WNW,292,2.0,5.0,89,0.00,,,0.00,weatherlink.com 1.10,2013-01-24 07:16:00,
2013-01-24 01:31:00,55.6,53.0,30.27,West,268,3.0,5.0,90,0.00,,,0.00,weatherlink.com 1.10,2013-01-24 07:31:00,
2013-01-24 01:46:00,55.7,53.0,30.27,WSW,255,1.0,5.0,91,0.00,,,0.00,weatherlink.com 1.10,2013-01-24 07:46:00,
2013-01-24 02:01:00,55.7,53.0,30.27,WSW,242,0.0,5.0,91,0.00,,,0.00,weatherlink.com 1.10,2013-01-24 08:01:00,
2013-01-24 02:17:00,55.9,53.0,30.26,SW,234,4.0,7.0,91,0.00,,,0.00,weatherlink.com 1.10,2013-01-24 08:17:00,
2013-01-24 02:31:00,55.8,53.0,30.26,WSW,243,3.0,6.0,91,0.00,,,0.00,weatherlink.com 1.10,2013-01-24 08:31:00,
2013-01-24 02:47:00,55.7,53.0,30.25,WSW,254,0.0,5.0,91,0.00,,,0.00,weatherlink.com 1.10,2013-01-24 08:47:00,
2013-01-24 03:01:00,55.7,53.0,30.25,WSW,238,4.0,5.0,91,0.00,,,0.00,weatherlink.com 1.10,2013-01-24 09:01:00,
2013-01-24 03:17:00,55.6,53.0,30.25,West,271,0.0,5.0,91,0.00,,,0.00,weatherlink.com 1.10,2013-01-24 09:17:00,
2013-01-24 03:31:00,55.6,53.0,30.25,WSW,250,4.0,6.0,91,0.00,,,0.00,weatherlink.com 1.10,2013-01-24 09:31:00,
2013-01-24 03:46:00,55.5,53.0,30.26,West,261,2.0,5.0,90,0.00,,,0.00,weatherlink.com 1.10,2013-01-24 09:46:00,
2013-01-24 04:01:00,55.3,53.0,30.26,West,266,0.0,3.0,90,0.00,,,0.00,weatherlink.com 1.10,2013-01-24 10:01:00,
2013-01-24 04:17:00,54.5,52.0,30.26,West,281,0.0,0.0,90,0.00,,,0.00,weatherlink.com 1.10,2013-01-24 10:17:00,
2013-01-24 04:32:00,53.7,51.0,30.27,West,281,0.0,0.0,90,0.00,,,0.00,weatherlink.com 1.10,2013-01-24 10:32:00,
2013-01-24 04:47:00,53.5,51.0,30.27,West,281,0.0,0.0,91,0.00,,,0.00,weatherlink.com 1.10,2013-01-24 10:47:00,
2013-01-24 05:02:00,53.5,51.0,30.27,West,281,0.0,0.0,92,0.00,,,0.00,weatherlink.com 1.10,2013-01-24 11:02:00,
2013-01-24 05:17:00,53.6,51.0,30.27,West,281,0.0,0.0,92,0.00,,,0.00,weatherlink.com 1.10,2013-01-24 11:17:00,
2013-01-24 05:32:00,53.9,52.0,30.27,West,263,0.0,0.0,92,0.00,,,0.00,weatherlink.com 1.10,2013-01-24 11:32:00,
2013-01-24 05:47:00,53.3,51.0,30.28,West,271,0.0,1.0,92,0.00,,,0.00,weatherlink.com 1.10,2013-01-24 11:47:00,
2013-01-24 06:02:00,52.6,50.0,30.29,NW,306,0.0,0.0,92,0.00,,,0.00,weatherlink.com 1.10,2013-01-24 12:02:00,
2013-01-24 06:18:00,52.9,51.0,30.29,NNW,329,0.0,1.0,93,0.00,,,0.00,weatherlink.com 1.10,2013-01-24 12:18:00,
2013-01-24 06:32:00,52.5,51.0,30.29,NNW,330,0.0,0.0,93,0.00,,,0.00,weatherlink.com 1.10,2013-01-24 12:32:00,
2013-01-24 06:47:00,52.3,50.0,30.29,NNW,330,0.0,0.0,93,0.00,,,0.00,weatherlink.com 1.10,2013-01-24 12:47:00,
2013-01-24 07:02:00,52.5,51.0,30.29,NNW,330,0.0,0.0,93,0.00,,,0.00,weatherlink.com 1.10,2013-01-24 13:02:00,
2013-01-24 07:17:00,52.4,51.0,30.29,NNW,330,0.0,0.0,93,0.00,,,0.00,weatherlink.com 1.10,2013-01-24 13:17:00,
2013-01-24 07:32:00,53.4,52.0,30.29,NNW,330,0.0,0.0,93,0.00,,,0.00,weatherlink.com 1.10,2013-01-24 13:32:00,
2013-01-24 07:47:00,54.2,52.0,30.30,NNW,330,0.0,0.0,92,0.00,,,0.00,weatherlink.com 1.10,2013-01-24 13:47:00,
2013-01-24 08:02:00,55.3,53.0,30.30,SW,231,0.0,1.0,91,0.00,,,0.00,weatherlink.com 1.10,2013-01-24 14:02:00,
2013-01-24 08:17:00,55.7,53.0,30.30,WSW,257,0.0,3.0,91,0.00,,,0.00,weatherlink.com 1.10,2013-01-24 14:17:00,
2013-01-24 08:32:00,56.2,54.0,30.30,West,274,0.0,3.0,91,0.00,,,0.00,weatherlink.com 1.10,2013-01-24 14:32:00,
2013-01-24 08:47:00,56.6,54.0,30.31,WSW,239,0.0,4.0,90,0.00,,,0.00,weatherlink.com 1.10,2013-01-24 14:47:00,
2013-01-24 09:02:00,57.1,54.0,30.31,WSW,242,1.0,2.0,89,0.00,,,0.00,weatherlink.com 1.10,2013-01-24 15:02:00,
2013-01-24 09:17:00,56.9,54.0,30.31,West,262,0.0,4.0,90,0.00,,,0.00,weatherlink.com 1.10,2013-01-24 15:17:00,
2013-01-24 09:32:00,57.9,55.0,30.32,West,269,4.0,6.0,89,0.00,,,0.00,weatherlink.com 1.10,2013-01-24 15:32:00,
2013-01-24 09:47:00,57.8,54.0,30.32,WSW,248,3.0,5.0,88,0.00,,,0.00,weatherlink.com 1.10,2013-01-24 15:47:00,
2013-01-24 10:02:00,57.8,55.0,30.32,WSW,252,1.0,5.0,89,0.00,,,0.00,weatherlink.com 1.10,2013-01-24 16:02:00,
2013-01-24 10:17:00,58.1,55.0,30.32,SW,229,3.0,5.0,90,0.00,,,0.00,weatherlink.com 1.10,2013-01-24 16:17:00,
2013-01-24 10:32:00,58.4,56.0,30.32,SW,236,0.0,3.0,90,0.00,,,0.00,weatherlink.com 1.10,2013-01-24 16:32:00,
2013-01-24 10:47:00,58.8,56.0,30.31,SSW,213,1.0,4.0,89,0.00,,,0.00,weatherlink.com 1.10,2013-01-24 16:47:00,
2013-01-24 11:02:00,59.1,56.0,30.31,SW,222,6.0,7.0,88,0.00,,,0.00,weatherlink.com 1.10,2013-01-24 17:02:00,
2013-01-24 11:17:00,59.6,56.0,30.30,SW,222,4.0,9.0,88,0.00,,,0.00,weatherlink.com 1.10,2013-01-24 17:17:00,
2013-01-24 11:32:00,60.1,56.0,30.30,WSW,242,4.0,9.0,86,0.00,,,0.00,weatherlink.com 1.10,2013-01-24 17:32:00,
2013-01-24 11:47:00,60.4,57.0,30.29,SW,229,7.0,10.0,87,0.00,,,0.00,weatherlink.com 1.10,2013-01-24 17:47:00,
2013-01-24 12:02:00,60.9,57.0,30.28,SW,219,6.0,9.0,86,0.00,,,0.00,weatherlink.com 1.10,2013-01-24 18:02:00,
2013-01-24 12:17:00,60.7,57.0,30.27,SW,236,6.0,10.0,86,0.00,,,0.00,weatherlink.com 1.10,2013-01-24 18:17:00,
2013-01-24 12:32:00,61.3,57.0,30.26,SW,228,6.0,10.0,86,0.00,,,0.00,weatherlink.com 1.10,2013-01-24 18:32:00,
2013-01-24 12:47:00,61.6,57.0,30.25,SW,226,12.0,12.0,85,0.00,,,0.00,weatherlink.com 1.10,2013-01-24 18:47:00,
2013-01-24 13:02:00,62.1,57.0,30.24,SW,233,11.0,16.0,83,0.00,,,0.00,weatherlink.com 1.10,2013-01-24 19:02:00,
2013-01-24 13:18:00,62.6,57.0,30.23,SW,225,13.0,16.0,81,0.00,,,0.00,weatherlink.com 1.10,2013-01-24 19:18:00,
2013-01-24 13:33:00,62.3,57.0,30.23,SW,234,5.0,12.0,83,0.00,,,0.00,weatherlink.com 1.10,2013-01-24 19:33:00,
2013-01-24 13:48:00,62.1,57.0,30.23,SW,233,5.0,10.0,83,0.00,,,0.00,weatherlink.com 1.10,2013-01-24 19:48:00,
2013-01-24 14:03:00,62.8,57.0,30.22,SW,218,6.0,10.0,82,0.00,,,0.00,weatherlink.com 1.10,2013-01-24 20:03:00,
2013-01-24 14:18:00,63.0,57.0,30.22,WSW,242,7.0,12.0,82,0.00,,,0.00,weatherlink.com 1.10,2013-01-24 20:18:00,
2013-01-24 14:33:00,63.4,58.0,30.21,SW,220,8.0,12.0,82,0.00,,,0.00,weatherlink.com 1.10,2013-01-24 20:33:00,
2013-01-24 14:48:00,62.9,57.0,30.21,SW,221,9.0,13.0,82,0.00,,,0.00,weatherlink.com 1.10,2013-01-24 20:48:00,
2013-01-24 15:03:00,62.3,57.0,30.20,SW,226,12.0,12.0,83,0.00,,,0.00,weatherlink.com 1.10,2013-01-24 21:03:00,
2013-01-24 15:18:00,62.8,58.0,30.20,SW,221,9.0,11.0,83,0.00,,,0.00,weatherlink.com 1.10,2013-01-24 21:18:00,
2013-01-24 15:33:00,63.0,57.0,30.20,SW,214,9.0,14.0,82,0.00,,,0.00,weatherlink.com 1.10,2013-01-24 21:33:00,
2013-01-24 15:48:00,62.6,58.0,30.20,SW,228,11.0,13.0,84,0.00,,,0.00,weatherlink.com 1.10,2013-01-24 21:48:00,
2013-01-24 16:03:00,62.5,58.0,30.20,SSW,211,9.0,14.0,85,0.00,,,0.00,weatherlink.com 1.10,2013-01-24 22:03:00,
2013-01-24 16:18:00,62.5,58.0,30.20,SW,217,11.0,16.0,85,0.00,,,0.00,weatherlink.com 1.10,2013-01-24 22:18:00,
2013-01-24 16:33:00,62.1,58.0,30.20,SW,225,10.0,12.0,86,0.00,,,0.00,weatherlink.com 1.10,2013-01-24 22:33:00,
2013-01-24 16:48:00,61.7,58.0,30.20,SW,219,7.0,11.0,86,0.00,,,0.00,weatherlink.com 1.10,2013-01-24 22:48:00,
2013-01-24 17:03:00,61.1,58.0,30.21,SSW,208,7.0,9.0,88,0.00,,,0.00,weatherlink.com 1.10,2013-01-24 23:03:00,
2013-01-24 17:18:00,60.8,57.0,30.21,SW,221,8.0,10.0,88,0.00,,,0.00,weatherlink.com 1.10,2013-01-24 23:18:00,
2013-01-24 17:33:00,60.6,57.0,30.21,SW,217,7.0,9.0,89,0.00,,,0.00,weatherlink.com 1.10,2013-01-24 23:33:00,
2013-01-24 17:48:00,60.7,58.0,30.21,SW,220,4.0,10.0,89,0.00,,,0.00,weatherlink.com 1.10,2013-01-24 23:48:00,
2013-01-24 18:03:00,60.2,57.0,30.21,SW,220,6.0,8.0,90,0.00,,,0.00,weatherlink.com 1.10,2013-01-25 00:03:00,
2013-01-24 18:18:00,59.8,57.0,30.22,SW,220,3.0,7.0,91,0.00,,,0.00,weatherlink.com 1.10,2013-01-25 00:18:00,
2013-01-24 18:33:00,60.0,57.0,30.22,SW,219,6.0,8.0,91,0.00,,,0.00,weatherlink.com 1.10,2013-01-25 00:33:00,
2013-01-24 18:48:00,60.1,58.0,30.24,WSW,238,4.0,6.0,91,0.00,,,0.00,weatherlink.com 1.10,2013-01-25 00:48:00,
2013-01-24 19:03:00,60.1,58.0,30.24,SW,235,2.0,5.0,91,0.00,,,0.00,weatherlink.com 1.10,2013-01-25 01:03:00,
2013-01-24 19:18:00,59.9,57.0,30.24,West,259,0.0,3.0,91,0.00,,,0.00,weatherlink.com 1.10,2013-01-25 01:18:00,
2013-01-24 19:33:00,59.7,57.0,30.24,SW,234,3.0,5.0,91,0.00,,,0.00,weatherlink.com 1.10,2013-01-25 01:33:00,
2013-01-24 19:48:00,59.5,57.0,30.24,West,259,0.0,4.0,92,0.00,,,0.00,weatherlink.com 1.10,2013-01-25 01:48:00,
2013-01-24 20:03:00,59.5,57.0,30.24,SSW,205,6.0,8.0,92,0.00,,,0.00,weatherlink.com 1.10,2013-01-25 02:03:00,
2013-01-24 20:18:00,59.8,57.0,30.24,WSW,239,7.0,10.0,90,0.00,,,0.00,weatherlink.com 1.10,2013-01-25 02:18:00,
2013-01-24 20:33:00,60.2,57.0,30.24,SW,236,6.0,12.0,88,0.00,,,0.00,weatherlink.com 1.10,2013-01-25 02:33:00,
2013-01-24 20:48:00,59.6,57.0,30.24,WSW,243,6.0,11.0,90,0.00,,,0.00,weatherlink.com 1.10,2013-01-25 02:48:00,
2013-01-24 21:03:00,59.2,56.0,30.23,SW,227,9.0,10.0,90,0.00,,,0.00,weatherlink.com 1.10,2013-01-25 03:03:00,
2013-01-24 21:18:00,59.3,56.0,30.23,SW,232,8.0,11.0,90,0.00,,,0.00,weatherlink.com 1.10,2013-01-25 03:18:00,
2013-01-24 21:33:00,59.5,57.0,30.23,WSW,240,11.0,13.0,90,0.00,,,0.00,weatherlink.com 1.10,2013-01-25 03:33:00,
2013-01-24 21:48:00,58.9,56.0,30.23,WSW,237,6.0,9.0,91,0.00,,,0.00,weatherlink.com 1.10,2013-01-25 03:48:00,
2013-01-24 22:03:00,58.9,57.0,30.23,SW,228,6.0,10.0,92,0.00,,,0.00,weatherlink.com 1.10,2013-01-25 04:03:00,
2013-01-24 22:18:00,59.0,57.0,30.24,WSW,243,4.0,8.0,92,0.00,,,0.00,weatherlink.com 1.10,2013-01-25 04:18:00,
2013-01-24 22:33:00,58.8,57.0,30.24,WNW,289,1.0,6.0,92,0.00,,,0.00,weatherlink.com 1.10,2013-01-25 04:33:00,
2013-01-24 22:48:00,58.5,57.0,30.24,SW,236,4.0,7.0,93,0.00,,,0.00,weatherlink.com 1.10,2013-01-25 04:48:00,
2013-01-24 23:03:00,58.3,56.0,30.23,WSW,250,1.0,5.0,93,0.00,,,0.00,weatherlink.com 1.10,2013-01-25 05:03:00,
2013-01-24 23:18:00,58.0,56.0,30.23,WSW,245,4.0,6.0,94,0.00,,,0.00,weatherlink.com 1.10,2013-01-25 05:18:00,
2013-01-24 23:33:00,57.9,56.0,30.23,West,276,0.0,4.0,94,0.00,,,0.00,weatherlink.com 1.10,2013-01-25 05:33:00,
2013-01-24 23:48:00,57.5,56.0,30.23,West,276,2.0,2.0,95,0.00,,,0.00,weatherlink.com 1.10,2013-01-25 05:48:00,